Content
SEND FEEDBACK

Daily
Averages
Monthly
Summary
Spain

PUERTO DEL ROSARIO, SPAIN


Home > Europe > Spain
Elevation: 98 feet     Latitude: 28 27N     Longitude: 013 52W

WEATHER
 
SELECT A DAY
Number of Records: 215,732;   Date Range: 7/1/96 - 7/22/14
 
SHARE

PRINT THIS DATA

[ ← Previous Day ]
WEATHER ALMANAC - JANUARY 21, 2013
[ Next Day → ]
[ °C ]   °F
Weather ElementAverageHighLow
Temperature66.9 °F71.6 °F (12:00 pm)64.4 °F (6:30 am)
Dewpoint56.2 °F59 °F (11:30 am)51.8 °F (11:00 am)
Humidity68.7 %83 % (11:00 pm)53 % (11:00 am)
Barometer30.10 in30.15 in (10:00 am)30.06 in (2:00 pm)
Wind Speed11.1 mph17.3 mph (3:30 pm)
Wind Gust29.9 mph (1:30 pm)
Weather ElementAverage
Visibility6.2 mi
Wind DirectionWSW (247.9 °)

Weather ElementTotal
Precipitation---
Cooling Degree Days3 (Base 65)
Growing Degree Days18 (Base 50)
Averaged from 34 records on January 21, 2013
WEATHER CONDITIONS BREAKOUT
WIND DIRECTION BREAKOUT
WEATHER BY HOUR - JANUARY 21, 2013
[ °C ]   °F
Local TimeTemperatureDewpointHumidityBarometerVisibilityWind DirectionWind SpeedGust SpeedPrecipitationEventsConditions
6:30 AM64.4 °F53.6 °F68 %30.09 in6.2 miNorth (350°)5.8 mphScattered Clouds
7:00 AM64.4 °F53.6 °F68 %30.09 in6.2 miNorth (360°)6.9 mphScattered Clouds
7:30 AM64.4 °F55.4 °F73 %30.09 in6.2 miNorth (360°)10.4 mphMostly Cloudy
8:00 AM64.4 °F55.4 °F73 %30.12 in6.2 miNNW (340°)4.6 mphMostly Cloudy
8:30 AM66.2 °F53.6 °F64 %30.12 in6.2 miNorth (360°)6.9 mphMostly Cloudy
9:00 AM66.2 °F53.6 °F64 %30.12 in6.2 miNorth (360°)9.2 mphMostly Cloudy
9:30 AM66.2 °F55.4 °F68 %30.12 in6.2 miNorth (10°)6.9 mphMostly Cloudy
10:00 AM68.0 °F55.4 °F64 %30.15 in6.2 miNorth (350°)11.5 mphMostly Cloudy
10:30 AM68.0 °F55.4 °F64 %30.15 in6.2 miNorth (10°)11.5 mphScattered Clouds
11:00 AM69.8 °F51.8 °F53 %30.15 in6.2 miNorth (10°)11.5 mphScattered Clouds
11:30 AM68.0 °F59.0 °F73 %30.15 in6.2 miNE (40°)8.1 mphScattered Clouds
12:00 PM71.6 °F53.6 °F53 %30.12 in6.2 miNorth (10°)10.4 mphScattered Clouds
12:30 PM69.8 °F59.0 °F68 %30.12 in6.2 miNE (40°)11.5 mphScattered Clouds
1:00 PM69.8 °F59.0 °F68 %30.09 in6.2 miNNE (20°)8.1 mphScattered Clouds
1:30 PM69.8 °F55.4 °F60 %30.09 in6.2 miNW (320°)10.4 mph29.9 mphScattered Clouds
2:00 PM69.8 °F55.4 °F60 %30.06 in6.2 miWNW (300°)13.8 mphMostly Cloudy
2:30 PM69.8 °F55.4 °F60 %30.06 in6.2 miNW (320°)11.5 mphMostly Cloudy
3:00 PM69.8 °F57.2 °F64 %30.06 in6.2 miWNW (300°)13.8 mphMostly Cloudy
3:30 PM66.2 °F57.2 °F73 %30.06 in6.2 miNNW (330°)17.3 mphLight Drizzle
4:00 PM66.2 °F59.0 °F78 %30.06 in6.2 miNNW (340°)15.0 mphMostly Cloudy
4:30 PM68.0 °F57.2 °F68 %30.06 in6.2 miNorth (350°)17.3 mphScattered Clouds
5:00 PM68.0 °F55.4 °F64 %30.06 in6.2 miNorth (350°)15.0 mphScattered Clouds
5:30 PM68.0 °F55.4 °F64 %30.06 in6.2 miNorth (350°)12.7 mphScattered Clouds
6:00 PM68.0 °F55.4 °F64 %30.06 in6.2 miNorth (350°)11.5 mphScattered Clouds
6:30 PM66.2 °F55.4 °F68 %30.09 in6.2 miNNW (330°)9.2 mphScattered Clouds
7:00 PM66.2 °F57.2 °F73 %30.09 in6.2 miNNW (340°)10.4 mphScattered Clouds
7:30 PM66.2 °F57.2 °F73 %30.09 in6.2 miNNW (340°)10.4 mphScattered Clouds
8:00 PM66.2 °F59.0 °F78 %30.09 in6.2 miNorth (360°)10.4 mphLight Drizzle
8:30 PM64.4 °F57.2 °F77 %30.09 in6.2 miNorth (360°)10.4 mphScattered Clouds
9:00 PM64.4 °F57.2 °F77 %30.12 in6.2 miNorth (360°)11.5 mphScattered Clouds
9:30 PM64.4 °F57.2 °F77 %30.12 in6.2 miNorth (360°)10.4 mphScattered Clouds
10:00 PM64.4 °F57.2 °F77 %30.12 in6.2 miNorth (10°)11.5 mphScattered Clouds
10:30 PM64.4 °F57.2 °F77 %30.12 in6.2 miNorth (10°)13.8 mphScattered Clouds
11:00 PM64.4 °F59.0 °F83 %30.12 in6.2 miNNE (30°)16.1 mphScattered Clouds
Hourly data recorded from GCFV, located miles away from Puerto del Rosario, Spain







STORIES FROM OUR PARTNERS